Time,TemperatureF,DewpointF,PressureIn,WindDirection,WindDirectionDegrees,WindSpeedMPH,WindSpeedGustMPH,Humidity,HourlyPrecipIn,Conditions,Clouds,dailyrainin,SoftwareType,DateUTC
2013-11-01 00:00:00,59.3,58.7,29.63,ENE,58,2.0,3.0,98,0.07,,,0.21,Wunderground v.1.15,2013-11-01 04:00:00,
2013-11-01 00:05:00,59.2,58.6,29.63,North,5,2.0,4.0,98,0.07,,,0.21,Wunderground v.1.15,2013-11-01 04:05:00,
2013-11-01 00:10:00,59.2,58.6,29.62,North,355,2.0,11.0,98,0.05,,,0.00,Wunderground v.1.15,2013-11-01 04:10:00,
2013-11-01 00:15:00,59.2,58.6,29.62,North,360,3.0,11.0,98,0.04,,,0.00,Wunderground v.1.15,2013-11-01 04:15:00,
2013-11-01 00:20:00,59.2,58.6,29.62,NNE,33,3.0,3.0,98,0.00,,,0.00,Wunderground v.1.15,2013-11-01 04:20:00,
2013-11-01 00:25:00,59.0,58.4,29.61,NE,47,2.0,4.0,98,0.00,,,0.00,Wunderground v.1.15,2013-11-01 04:25:00,
2013-11-01 00:30:00,58.9,58.3,29.60,NW,314,2.0,2.0,98,0.00,,,0.01,Wunderground v.1.15,2013-11-01 04:30:00,
2013-11-01 00:40:00,58.7,58.1,29.59,North,360,3.0,3.0,98,0.00,,,0.01,Wunderground v.1.15,2013-11-01 04:40:00,
2013-11-01 00:50:00,58.6,57.8,29.57,NNE,32,3.0,3.0,97,0.00,,,0.01,Wunderground v.1.15,2013-11-01 04:50:00,
2013-11-01 01:00:00,58.6,57.8,29.57,North,360,2.0,2.0,97,0.00,,,0.02,Wunderground v.1.15,2013-11-01 05:00:00,
2013-11-01 01:05:00,58.6,57.8,29.57,ESE,110,2.0,11.0,97,0.09,,,0.03,Wunderground v.1.15,2013-11-01 05:05:00,
2013-11-01 01:10:00,58.4,57.6,29.59,North,360,2.0,2.0,97,0.07,,,0.03,Wunderground v.1.15,2013-11-01 05:10:00,
2013-11-01 01:20:00,58.4,57.8,29.59,NNE,15,2.0,4.0,98,0.00,,,0.03,Wunderground v.1.15,2013-11-01 05:20:00,
2013-11-01 01:30:00,58.3,57.7,29.55,North,5,2.0,3.0,98,0.00,,,0.04,Wunderground v.1.15,2013-11-01 05:30:00,
2013-11-01 01:40:00,58.3,57.7,29.56,North,10,2.0,4.0,98,0.00,,,0.04,Wunderground v.1.15,2013-11-01 05:40:00,
2013-11-01 01:45:00,58.3,57.7,29.54,NE,38,2.0,4.0,98,0.00,,,0.04,Wunderground v.1.15,2013-11-01 05:45:00,
2013-11-01 01:50:00,58.1,57.5,29.53,NNW,343,2.0,4.0,98,0.00,,,0.04,Wunderground v.1.15,2013-11-01 05:50:00,
2013-11-01 02:00:00,58.1,57.5,29.55,ENE,77,2.0,2.0,98,0.00,,,0.04,Wunderground v.1.15,2013-11-01 06:00:00,
2013-11-01 02:05:00,58.1,57.5,29.55,NNE,15,3.0,3.0,98,0.00,,,0.04,Wunderground v.1.15,2013-11-01 06:05:00,
2013-11-01 02:15:00,58.0,57.2,29.54,NNE,19,2.0,5.0,97,0.00,,,0.04,Wunderground v.1.15,2013-11-01 06:15:00,
2013-11-01 02:20:00,58.0,57.2,29.54,NW,306,2.0,2.0,97,0.00,,,0.04,Wunderground v.1.15,2013-11-01 06:20:00,
2013-11-01 02:30:00,58.0,57.2,29.55,East,82,2.0,4.0,97,0.00,,,0.04,Wunderground v.1.15,2013-11-01 06:30:00,
2013-11-01 02:40:00,57.8,57.0,29.55,NNE,27,1.0,1.0,97,0.00,,,0.04,Wunderground v.1.15,2013-11-01 06:40:00,
2013-11-01 02:50:00,57.8,57.0,29.54,NE,44,1.0,1.0,97,0.00,,,0.04,Wunderground v.1.15,2013-11-01 06:50:00,
2013-11-01 03:00:00,57.6,56.5,29.54,NE,42,2.0,2.0,96,0.00,,,0.04,Wunderground v.1.15,2013-11-01 07:00:00,
2013-11-01 03:05:00,57.6,56.5,29.54,NNW,347,2.0,2.0,96,0.00,,,0.04,Wunderground v.1.15,2013-11-01 07:05:00,
2013-11-01 03:15:00,57.6,56.5,29.52,North,9,2.0,2.0,96,0.00,,,0.04,Wunderground v.1.15,2013-11-01 07:15:00,
2013-11-01 03:20:00,57.6,56.5,29.53,North,9,2.0,2.0,96,0.00,,,0.05,Wunderground v.1.15,2013-11-01 07:20:00,
2013-11-01 03:30:00,57.6,56.5,29.52,North,9,2.0,2.0,96,0.28,,,0.08,Wunderground v.1.15,2013-11-01 07:30:00,
2013-11-01 03:40:00,57.6,56.8,29.52,NE,53,2.0,2.0,97,0.41,,,0.13,Wunderground v.1.15,2013-11-01 07:40:00,
2013-11-01 03:50:00,57.6,56.8,29.51,NE,39,3.0,3.0,97,0.27,,,0.18,Wunderground v.1.15,2013-11-01 07:50:00,
2013-11-01 04:00:00,57.8,57.2,29.51,NE,36,3.0,5.0,98,0.46,,,0.23,Wunderground v.1.15,2013-11-01 08:00:00,
2013-11-01 04:10:00,57.8,57.2,29.51,NE,43,1.0,1.0,98,0.11,,,0.26,Wunderground v.1.15,2013-11-01 08:10:00,
2013-11-01 04:20:00,57.8,57.2,29.50,NE,53,1.0,2.0,98,0.06,,,0.27,Wunderground v.1.15,2013-11-01 08:20:00,
2013-11-01 04:30:00,57.8,57.2,29.50,WNW,302,2.0,2.0,98,0.18,,,0.29,Wunderground v.1.15,2013-11-01 08:30:00,
2013-11-01 04:40:00,57.8,57.5,29.50,NE,55,2.0,2.0,99,0.33,,,0.32,Wunderground v.1.15,2013-11-01 08:40:00,
2013-11-01 04:45:00,57.8,57.5,29.50,NNE,33,1.0,3.0,99,0.21,,,0.33,Wunderground v.1.15,2013-11-01 08:45:00,
2013-11-01 04:55:00,58.0,57.7,29.50,North,11,1.0,4.0,99,0.49,,,0.37,Wunderground v.1.15,2013-11-01 08:55:00,
2013-11-01 05:05:00,58.1,57.8,29.49,SE,125,3.0,5.0,99,0.07,,,0.38,Wunderground v.1.15,2013-11-01 09:05:00,
2013-11-01 05:10:00,58.3,58.0,29.49,NE,51,2.0,2.0,99,0.05,,,0.38,Wunderground v.1.15,2013-11-01 09:10:00,
2013-11-01 05:20:00,58.6,58.3,29.49,North,9,2.0,3.0,99,0.00,,,0.38,Wunderground v.1.15,2013-11-01 09:20:00,
2013-11-01 05:30:00,58.7,58.4,29.49,ENE,71,2.0,2.0,99,0.00,,,0.38,Wunderground v.1.15,2013-11-01 09:30:00,
2013-11-01 05:40:00,58.7,58.4,29.49,NNE,32,3.0,3.0,99,0.00,,,0.38,Wunderground v.1.15,2013-11-01 09:40:00,
2013-11-01 05:50:00,58.9,58.6,29.49,ENE,59,2.0,2.0,99,0.23,,,0.42,Wunderground v.1.15,2013-11-01 09:50:00,
2013-11-01 06:00:00,58.9,58.6,29.48,NNE,32,2.0,2.0,99,0.12,,,0.45,Wunderground v.1.15,2013-11-01 10:00:00,
2013-11-01 06:05:00,59.0,58.7,29.49,NE,48,2.0,2.0,99,0.10,,,0.46,Wunderground v.1.15,2013-11-01 10:05:00,
2013-11-01 06:10:00,59.0,58.7,29.48,NNW,337,2.0,2.0,99,0.15,,,0.48,Wunderground v.1.15,2013-11-01 10:10:00,
2013-11-01 06:20:00,59.2,58.9,29.48,NNE,26,2.0,6.0,99,0.07,,,0.49,Wunderground v.1.15,2013-11-01 10:20:00,
2013-11-01 06:30:00,59.3,59.0,29.48,NNE,33,2.0,2.0,99,0.13,,,0.51,Wunderground v.1.15,2013-11-01 10:30:00,
2013-11-01 06:40:00,59.5,59.2,29.48,NE,39,2.0,2.0,99,0.10,,,0.52,Wunderground v.1.15,2013-11-01 10:40:00,
2013-11-01 06:50:00,59.5,59.2,29.48,NNE,30,2.0,2.0,99,0.04,,,0.53,Wunderground v.1.15,2013-11-01 10:50:00,
2013-11-01 06:55:00,59.5,59.2,29.48,NNE,32,2.0,2.0,99,0.04,,,0.53,Wunderground v.1.15,2013-11-01 10:55:00,
2013-11-01 07:05:00,59.3,59.0,29.50,East,92,1.0,2.0,99,0.05,,,0.54,Wunderground v.1.15,2013-11-01 11:05:00,
2013-11-01 07:15:00,59.2,58.9,29.50,NNE,30,1.0,1.0,99,0.04,,,0.54,Wunderground v.1.15,2013-11-01 11:15:00,
2013-11-01 07:20:00,59.0,58.7,29.49,NNE,33,1.0,1.0,99,0.04,,,0.55,Wunderground v.1.15,2013-11-01 11:20:00,
2013-11-01 07:30:00,59.0,58.7,29.49,NNE,21,1.0,1.0,99,0.04,,,0.55,Wunderground v.1.15,2013-11-01 11:30:00,
2013-11-01 07:40:00,59.0,58.7,29.49,NE,48,1.0,2.0,99,0.00,,,0.55,Wunderground v.1.15,2013-11-01 11:40:00,
2013-11-01 07:50:00,59.0,59.0,29.49,NNE,22,0.0,0.0,100,0.00,,,0.55,Wunderground v.1.15,2013-11-01 11:50:00,
2013-11-01 08:00:00,59.0,59.0,29.49,NNE,15,1.0,1.0,100,0.00,,,0.55,Wunderground v.1.15,2013-11-01 12:00:00,
2013-11-01 08:05:00,59.2,59.2,29.49,NNE,31,0.0,1.0,100,0.00,,,0.55,Wunderground v.1.15,2013-11-01 12:05:00,
2013-11-01 08:15:00,59.2,59.2,29.51,SSW,211,1.0,1.0,100,0.00,,,0.55,Wunderground v.1.15,2013-11-01 12:15:00,
2013-11-01 08:20:00,59.2,59.2,29.51,NNW,340,1.0,1.0,100,0.00,,,0.56,Wunderground v.1.15,2013-11-01 12:20:00,
2013-11-01 08:30:00,59.3,59.3,29.51,NNE,16,1.0,1.0,100,0.26,,,0.58,Wunderground v.1.15,2013-11-01 12:30:00,
2013-11-01 08:40:00,59.2,59.2,29.52,North,355,0.0,0.0,100,0.25,,,0.63,Wunderground v.1.15,2013-11-01 12:40:00,
2013-11-01 08:50:00,59.2,59.2,29.52,SSW,206,0.0,0.0,100,0.17,,,0.65,Wunderground v.1.15,2013-11-01 12:50:00,
2013-11-01 09:00:00,57.8,57.5,29.54,West,261,2.0,3.0,99,0.32,,,0.72,Wunderground v.1.15,2013-11-01 13:00:00,
2013-11-01 09:10:00,55.9,55.6,29.55,West,268,2.0,2.0,99,0.19,,,0.76,Wunderground v.1.15,2013-11-01 13:10:00,
2013-11-01 09:20:00,55.4,55.1,29.56,West,275,1.0,1.0,99,0.09,,,0.78,Wunderground v.1.15,2013-11-01 13:20:00,
2013-11-01 09:30:00,54.5,54.2,29.56,WSW,252,1.0,1.0,99,0.10,,,0.79,Wunderground v.1.15,2013-11-01 13:30:00,
2013-11-01 09:40:00,54.4,53.8,29.56,WSW,250,1.0,1.0,98,0.05,,,0.80,Wunderground v.1.15,2013-11-01 13:40:00,
2013-11-01 09:50:00,54.4,53.8,29.55,East,101,1.0,1.0,98,0.07,,,0.81,Wunderground v.1.15,2013-11-01 13:50:00,
2013-11-01 10:00:00,54.5,53.9,29.55,East,101,0.0,0.0,98,0.00,,,0.81,Wunderground v.1.15,2013-11-01 14:00:00,
2013-11-01 10:10:00,54.8,54.2,29.55,East,101,0.0,0.0,98,0.00,,,0.81,Wunderground v.1.15,2013-11-01 14:10:00,
2013-11-01 10:20:00,55.1,54.5,29.55,East,101,0.0,0.0,98,0.00,,,0.81,Wunderground v.1.15,2013-11-01 14:20:00,
2013-11-01 10:25:00,55.3,54.7,29.55,East,101,0.0,0.0,98,0.00,,,0.81,Wunderground v.1.15,2013-11-01 14:25:00,
2013-11-01 10:35:00,55.6,55.0,29.53,East,101,0.0,0.0,98,0.00,,,0.81,Wunderground v.1.15,2013-11-01 14:35:00,
2013-11-01 10:40:00,55.9,55.3,29.53,NE,42,0.0,0.0,98,0.00,,,0.81,Wunderground v.1.15,2013-11-01 14:40:00,
2013-11-01 10:50:00,56.6,56.0,29.53,NE,42,0.0,0.0,98,0.00,,,0.81,Wunderground v.1.15,2013-11-01 14:50:00,
2013-11-01 11:00:00,57.0,56.4,29.53,NE,56,0.0,0.0,98,0.00,,,0.81,Wunderground v.1.15,2013-11-01 15:00:00,
2013-11-01 11:10:00,57.2,56.4,29.53,NE,40,0.0,0.0,97,0.00,,,0.81,Wunderground v.1.15,2013-11-01 15:10:00,
2013-11-01 11:20:00,57.3,56.2,29.53,NNE,33,0.0,0.0,96,0.00,,,0.81,Wunderground v.1.15,2013-11-01 15:20:00,
2013-11-01 11:30:00,57.6,56.2,29.52,ESE,121,0.0,0.0,95,0.00,,,0.81,Wunderground v.1.15,2013-11-01 15:30:00,
2013-11-01 11:35:00,58.0,56.6,29.52,ESE,121,0.0,0.0,95,0.00,,,0.81,Wunderground v.1.15,2013-11-01 15:35:00,
2013-11-01 11:45:00,58.1,56.4,29.52,East,98,0.0,0.0,94,0.00,,,0.81,Wunderground v.1.15,2013-11-01 15:45:00,
2013-11-01 11:55:00,58.4,56.1,29.51,ENE,76,0.0,0.0,92,0.00,,,0.81,Wunderground v.1.15,2013-11-01 15:55:00,
2013-11-01 12:00:00,58.9,56.3,29.50,ENE,76,0.0,0.0,91,0.00,,,0.81,Wunderground v.1.15,2013-11-01 16:00:00,
2013-11-01 12:10:00,59.6,56.0,29.50,South,189,0.0,0.0,88,0.00,,,0.81,Wunderground v.1.15,2013-11-01 16:10:00,
2013-11-01 12:20:00,60.5,55.6,29.50,West,263,0.0,0.0,84,0.00,,,0.81,Wunderground v.1.15,2013-11-01 16:20:00,
2013-11-01 12:30:00,61.5,52.8,29.50,West,263,0.0,0.0,73,0.00,,,0.81,Wunderground v.1.15,2013-11-01 16:30:00,
2013-11-01 12:35:00,62.1,55.2,29.49,West,263,0.0,0.0,78,0.00,,,0.81,Wunderground v.1.15,2013-11-01 16:35:00,
2013-11-01 12:45:00,62.7,55.0,29.49,NNW,332,0.0,0.0,76,0.00,,,0.81,Wunderground v.1.15,2013-11-01 16:45:00,
2013-11-01 12:50:00,63.1,56.5,29.49,NNW,332,0.0,0.0,79,0.00,,,0.81,Wunderground v.1.15,2013-11-01 16:50:00,
2013-11-01 13:00:00,63.9,52.7,29.48,West,281,0.0,1.0,67,0.00,,,0.81,Wunderground v.1.15,2013-11-01 17:00:00,
2013-11-01 13:10:00,65.0,55.0,29.48,NNE,12,1.0,1.0,70,0.00,,,0.81,Wunderground v.1.15,2013-11-01 17:10:00,
2013-11-01 13:20:00,65.2,53.6,29.47,North,5,0.0,0.0,66,0.00,,,0.81,Wunderground v.1.15,2013-11-01 17:20:00,
2013-11-01 13:25:00,65.2,52.3,29.47,North,5,0.0,0.0,63,0.00,,,0.81,Wunderground v.1.15,2013-11-01 17:25:00,
2013-11-01 13:35:00,65.5,54.2,29.45,North,11,1.0,1.0,67,0.00,,,0.81,Wunderground v.1.15,2013-11-01 17:35:00,
2013-11-01 13:40:00,65.8,54.5,29.45,WNW,298,1.0,1.0,67,0.00,,,0.81,Wunderground v.1.15,2013-11-01 17:40:00,
2013-11-01 13:50:00,65.6,53.5,29.45,NNE,24,1.0,1.0,65,0.00,,,0.81,Wunderground v.1.15,2013-11-01 17:50:00,
2013-11-01 14:00:00,65.5,53.8,29.45,SE,135,0.0,2.0,66,0.00,,,0.81,Wunderground v.1.15,2013-11-01 18:00:00,
2013-11-01 14:10:00,65.3,54.1,29.45,NNE,31,1.0,1.0,67,0.00,,,0.81,Wunderground v.1.15,2013-11-01 18:10:00,
2013-11-01 14:20:00,65.5,55.5,29.44,NE,43,1.0,1.0,70,0.00,,,0.81,Wunderground v.1.15,2013-11-01 18:20:00,
2013-11-01 14:25:00,65.5,55.8,29.44,NE,43,0.0,1.0,71,0.00,,,0.81,Wunderground v.1.15,2013-11-01 18:25:00,
2013-11-01 14:35:00,65.8,56.9,29.43,NNE,15,0.0,0.0,73,0.00,,,0.81,Wunderground v.1.15,2013-11-01 18:35:00,
2013-11-01 14:40:00,66.0,54.7,29.43,NNE,28,1.0,1.0,67,0.00,,,0.81,Wunderground v.1.15,2013-11-01 18:40:00,
2013-11-01 14:50:00,66.0,56.3,29.42,North,5,0.0,0.0,71,0.00,,,0.81,Wunderground v.1.15,2013-11-01 18:50:00,
2013-11-01 15:00:00,66.3,55.8,29.42,West,277,0.0,0.0,69,0.00,,,0.81,Wunderground v.1.15,2013-11-01 19:00:00,
2013-11-01 15:10:00,66.4,55.1,29.42,NE,44,0.0,0.0,67,0.00,,,0.81,Wunderground v.1.15,2013-11-01 19:10:00,
2013-11-01 15:20:00,66.1,55.2,29.41,NNE,28,0.0,0.0,68,0.00,,,0.81,Wunderground v.1.15,2013-11-01 19:20:00,
2013-11-01 15:25:00,65.8,53.7,29.41,NNW,340,0.0,0.0,65,0.00,,,0.81,Wunderground v.1.15,2013-11-01 19:25:00,
2013-11-01 15:35:00,65.6,53.9,29.41,North,360,0.0,0.0,66,0.00,,,0.81,Wunderground v.1.15,2013-11-01 19:35:00,
2013-11-01 15:40:00,65.6,54.8,29.40,WNW,294,0.0,1.0,68,0.00,,,0.81,Wunderground v.1.15,2013-11-01 19:40:00,
2013-11-01 15:50:00,65.6,54.8,29.40,SE,124,1.0,1.0,68,0.00,,,0.81,Wunderground v.1.15,2013-11-01 19:50:00,
2013-11-01 16:00:00,65.5,55.8,29.40,NNE,30,0.0,0.0,71,0.00,,,0.81,Wunderground v.1.15,2013-11-01 20:00:00,
2013-11-01 16:10:00,65.3,55.3,29.41,NNE,14,0.0,0.0,70,0.00,,,0.81,Wunderground v.1.15,2013-11-01 20:10:00,
2013-11-01 16:20:00,65.0,56.1,29.40,NNE,14,0.0,0.0,73,0.00,,,0.81,Wunderground v.1.15,2013-11-01 20:20:00,
2013-11-01 16:30:00,64.8,54.4,29.42,NNE,30,0.0,0.0,69,0.00,,,0.81,Wunderground v.1.15,2013-11-01 20:30:00,
2013-11-01 16:35:00,64.8,55.2,29.42,NNE,30,0.0,0.0,71,0.00,,,0.81,Wunderground v.1.15,2013-11-01 20:35:00,
2013-11-01 16:45:00,64.8,55.6,29.42,ESE,115,0.0,0.0,72,0.00,,,0.81,Wunderground v.1.15,2013-11-01 20:45:00,
2013-11-01 16:55:00,64.8,55.9,29.42,NNW,341,1.0,1.0,73,0.00,,,0.81,Wunderground v.1.15,2013-11-01 20:55:00,
2013-11-01 17:00:00,64.5,56.0,29.42,NNW,348,0.0,0.0,74,0.00,,,0.81,Wunderground v.1.15,2013-11-01 21:00:00,
2013-11-01 17:10:00,63.7,56.0,29.42,East,91,0.0,0.0,76,0.00,,,0.81,Wunderground v.1.15,2013-11-01 21:10:00,
2013-11-01 17:20:00,63.2,56.6,29.42,North,355,1.0,1.0,79,0.00,,,0.81,Wunderground v.1.15,2013-11-01 21:20:00,
2013-11-01 17:30:00,62.9,57.0,29.42,NE,35,0.0,0.0,81,0.00,,,0.81,Wunderground v.1.15,2013-11-01 21:30:00,
2013-11-01 17:40:00,62.3,56.4,29.42,NE,35,0.0,0.0,81,0.00,,,0.81,Wunderground v.1.15,2013-11-01 21:40:00,
2013-11-01 17:50:00,61.8,56.9,29.42,NE,35,0.0,0.0,84,0.00,,,0.81,Wunderground v.1.15,2013-11-01 21:50:00,
2013-11-01 17:55:00,61.6,57.0,29.43,WNW,294,0.0,0.0,85,0.00,,,0.81,Wunderground v.1.15,2013-11-01 21:55:00,
2013-11-01 18:05:00,61.3,57.1,29.43,NNE,19,0.0,0.0,86,0.00,,,0.81,Wunderground v.1.15,2013-11-01 22:05:00,
2013-11-01 18:15:00,60.7,56.8,29.43,NNE,19,0.0,0.0,87,0.00,,,0.81,Wunderground v.1.15,2013-11-01 22:15:00,
2013-11-01 18:20:00,60.4,56.5,29.43,NNE,19,0.0,0.0,87,0.00,,,0.81,Wunderground v.1.15,2013-11-01 22:20:00,
2013-11-01 18:30:00,59.9,56.6,29.44,NE,34,0.0,0.0,89,0.00,,,0.81,Wunderground v.1.15,2013-11-01 22:30:00,
2013-11-01 18:40:00,59.3,56.4,29.44,NE,34,0.0,0.0,90,0.00,,,0.81,Wunderground v.1.15,2013-11-01 22:40:00,
2013-11-01 18:50:00,58.7,56.1,29.45,WNW,288,0.0,0.0,91,0.00,,,0.81,Wunderground v.1.15,2013-11-01 22:50:00,
2013-11-01 19:00:00,58.4,56.1,29.46,WNW,301,0.0,0.0,92,0.00,,,0.81,Wunderground v.1.15,2013-11-01 23:00:00,
2013-11-01 19:10:00,58.1,55.8,29.46,North,5,0.0,1.0,92,0.00,,,0.81,Wunderground v.1.15,2013-11-01 23:10:00,
2013-11-01 19:15:00,57.8,55.5,29.46,North,5,0.0,1.0,92,0.00,,,0.81,Wunderground v.1.15,2013-11-01 23:15:00,
2013-11-01 19:20:00,57.6,55.3,29.46,North,11,0.0,0.0,92,0.00,,,0.81,Wunderground v.1.15,2013-11-01 23:20:00,
2013-11-01 19:30:00,57.2,54.9,29.46,North,9,0.0,0.0,92,0.00,,,0.81,Wunderground v.1.15,2013-11-01 23:30:00,
2013-11-01 19:40:00,56.7,54.4,29.47,North,9,0.0,0.0,92,0.00,,,0.81,Wunderground v.1.15,2013-11-01 23:40:00,
2013-11-01 19:50:00,56.3,54.0,29.47,North,9,0.0,0.0,92,0.00,,,0.81,Wunderground v.1.15,2013-11-01 23:50:00,
2013-11-01 20:00:00,55.7,53.7,29.48,North,9,0.0,1.0,93,0.00,,,0.81,Wunderground v.1.15,2013-11-02 00:00:00,
2013-11-01 20:05:00,55.6,53.9,29.48,NE,49,0.0,1.0,94,0.00,,,0.81,Wunderground v.1.15,2013-11-02 00:05:00,
2013-11-01 20:15:00,55.3,53.6,29.49,NE,49,0.0,0.0,94,0.00,,,0.81,Wunderground v.1.15,2013-11-02 00:15:00,
2013-11-01 20:20:00,55.1,53.4,29.50,NE,49,0.0,0.0,94,0.00,,,0.81,Wunderground v.1.15,2013-11-02 00:20:00,
2013-11-01 20:30:00,55.1,53.7,29.50,NE,49,0.0,0.0,95,0.00,,,0.81,Wunderground v.1.15,2013-11-02 00:30:00,
2013-11-01 20:40:00,55.0,53.6,29.50,NE,50,0.0,1.0,95,0.00,,,0.81,Wunderground v.1.15,2013-11-02 00:40:00,
2013-11-01 20:50:00,54.7,53.6,29.50,NE,50,0.0,0.0,96,0.00,,,0.81,Wunderground v.1.15,2013-11-02 00:50:00,
2013-11-01 21:00:00,54.5,53.4,29.50,NE,50,0.0,0.0,96,0.00,,,0.81,Wunderground v.1.15,2013-11-02 01:00:00,
2013-11-01 21:05:00,54.5,53.4,29.50,NE,50,0.0,0.0,96,0.00,,,0.81,Wunderground v.1.15,2013-11-02 01:05:00,
2013-11-01 21:15:00,54.2,53.1,29.51,NE,50,0.0,0.0,96,0.00,,,0.81,Wunderground v.1.15,2013-11-02 01:15:00,
2013-11-01 21:20:00,54.1,53.0,29.51,NE,50,0.0,0.0,96,0.00,,,0.81,Wunderground v.1.15,2013-11-02 01:20:00,
2013-11-01 21:30:00,53.9,52.8,29.51,NE,50,0.0,0.0,96,0.00,,,0.81,Wunderground v.1.15,2013-11-02 01:30:00,
2013-11-01 21:40:00,53.6,52.5,29.51,NE,50,0.0,0.0,96,0.00,,,0.81,Wunderground v.1.15,2013-11-02 01:40:00,
2013-11-01 21:50:00,53.2,52.1,29.51,NE,50,0.0,0.0,96,0.00,,,0.81,Wunderground v.1.15,2013-11-02 01:50:00,
2013-11-01 22:00:00,52.6,50.6,29.52,NE,50,0.0,0.0,93,0.00,,,0.81,Wunderground v.1.15,2013-11-02 02:00:00,
2013-11-01 22:10:00,52.3,49.5,29.52,NE,50,0.0,0.0,90,0.00,,,0.81,Wunderground v.1.15,2013-11-02 02:10:00,
2013-11-01 22:15:00,52.2,49.1,29.52,NE,50,0.0,0.0,89,0.00,,,0.81,Wunderground v.1.15,2013-11-02 02:15:00,
2013-11-01 22:20:00,52.2,48.8,29.52,NE,49,0.0,0.0,88,0.00,,,0.81,Wunderground v.1.15,2013-11-02 02:20:00,
2013-11-01 22:30:00,52.3,47.6,29.52,NE,49,0.0,0.0,84,0.00,,,0.81,Wunderground v.1.15,2013-11-02 02:30:00,
2013-11-01 22:40:00,52.3,47.3,29.53,NE,49,0.0,0.0,83,0.00,,,0.81,Wunderground v.1.15,2013-11-02 02:40:00,
2013-11-01 22:50:00,52.2,47.2,29.53,NE,49,0.0,0.0,83,0.00,,,0.81,Wunderground v.1.15,2013-11-02 02:50:00,
2013-11-01 23:00:00,51.7,45.4,29.53,NE,49,0.0,0.0,79,0.00,,,0.81,Wunderground v.1.15,2013-11-02 03:00:00,
2013-11-01 23:10:00,51.6,44.6,29.52,NE,49,0.0,2.0,77,0.00,,,0.81,Wunderground v.1.15,2013-11-02 03:10:00,
2013-11-01 23:20:00,51.7,44.0,29.53,West,271,1.0,1.0,75,0.00,,,0.81,Wunderground v.1.15,2013-11-02 03:20:00,
2013-11-01 23:25:00,51.9,44.2,29.53,West,271,0.0,1.0,75,0.00,,,0.81,Wunderground v.1.15,2013-11-02 03:25:00,
2013-11-01 23:30:00,52.0,42.9,29.53,West,271,0.0,0.0,71,0.00,,,0.81,Wunderground v.1.15,2013-11-02 03:30:00,
2013-11-01 23:40:00,52.5,43.0,29.53,West,269,1.0,1.0,70,0.00,,,0.81,Wunderground v.1.15,2013-11-02 03:40:00,
2013-11-01 23:50:00,52.3,43.2,29.53,West,269,0.0,0.0,71,0.00,,,0.81,Wunderground v.1.15,2013-11-02 03:50:00,